BCS138 EDDP-LIMC

Flight info

Callsign BCS138
Flight time N/A
Altitude 37000
Route EDDP/08R NEVKO Q243 BAMKI Z94 KOMIB DCT TEDGO DCT SONOM DCT GERSA DCT SOSON DCT DEGAD Z424 RIXUV
Aircraft A333/H-SDE3GHIJ2J3J5M1RVWXY/LB2D1

Departure

Time N/A
Airport Leipzig/Halle Airport (EDDP)

Arrival

Time 2026-05-05 21:10
Airport Milan Malpensa International Airport (LIMC)
Time Latitude Longitude Altitude Speed Heading
2026-05-05 20:10 49.39198 9.77408 37000 ft 472 kts 204°
2026-05-05 20:11 49.34135 9.73984 37000 ft 472 kts 204°
2026-05-05 20:11 49.28113 9.69921 37000 ft 473 kts 204°
2026-05-05 20:12 49.22091 9.65869 37000 ft 472 kts 204°
2026-05-05 20:12 49.16098 9.61847 37000 ft 473 kts 204°
2026-05-05 20:13 49.10070 9.57812 37000 ft 473 kts 204°
2026-05-05 20:13 49.04036 9.53784 37000 ft 473 kts 204°
2026-05-05 20:14 48.98003 9.49766 37000 ft 473 kts 204°
2026-05-05 20:14 48.92112 9.45854 37000 ft 473 kts 204°
2026-05-05 20:15 48.86115 9.41881 37000 ft 472 kts 204°
2026-05-05 20:15 48.80091 9.37901 37000 ft 472 kts 204°
2026-05-05 20:16 48.74056 9.33924 37000 ft 473 kts 204°
2026-05-05 20:16 48.68051 9.29978 37000 ft 472 kts 204°
2026-05-05 20:17 48.61934 9.26115 37000 ft 473 kts 199°
2026-05-05 20:17 48.55656 9.23132 37000 ft 473 kts 197°
2026-05-05 20:18 48.49347 9.20344 37000 ft 473 kts 196°
2026-05-05 20:18 48.43059 9.17608 36999 ft 473 kts 196°
2026-05-05 20:19 48.36715 9.14840 37001 ft 475 kts 196°
2026-05-05 20:19 48.30349 9.12057 37000 ft 476 kts 196°
2026-05-05 20:20 48.23980 9.09277 37000 ft 476 kts 196°
2026-05-05 20:20 48.17620 9.06507 37000 ft 476 kts 196°
2026-05-05 20:21 48.11243 9.03739 37000 ft 476 kts 196°
2026-05-05 20:21 48.04940 9.01010 37000 ft 475 kts 196°
2026-05-05 20:22 47.98534 8.98244 37000 ft 475 kts 196°
2026-05-05 20:22 47.92184 8.95509 37000 ft 475 kts 196°
2026-05-05 20:23 47.85878 8.92799 37001 ft 474 kts 196°
2026-05-05 20:23 47.79542 8.90084 37000 ft 473 kts 196°
2026-05-05 20:24 47.73300 8.87173 37000 ft 473 kts 198°
2026-05-05 20:24 47.67066 8.84050 37000 ft 473 kts 199°
2026-05-05 20:25 47.60834 8.80927 37000 ft 473 kts 199°
2026-05-05 20:25 47.54589 8.77837 37000 ft 473 kts 199°
2026-05-05 20:26 47.48336 8.74768 37000 ft 473 kts 198°
2026-05-05 20:26 47.42081 8.71708 37000 ft 473 kts 198°
2026-05-05 20:27 47.35850 8.68667 37000 ft 473 kts 198°
2026-05-05 20:27 47.29587 8.65617 36999 ft 473 kts 198°
2026-05-05 20:28 47.23350 8.62587 37000 ft 473 kts 198°
2026-05-05 20:28 47.17077 8.59547 37000 ft 474 kts 198°
2026-05-05 20:29 47.10812 8.56518 37000 ft 475 kts 198°
2026-05-05 20:29 47.04411 8.53988 37000 ft 476 kts 187°
2026-05-05 20:29 47.01133 8.53764 36994 ft 465 kts 178°
2026-05-05 20:30 46.97952 8.53994 36995 ft 452 kts 176°
2026-05-05 20:30 46.94857 8.54370 36992 ft 439 kts 175°
2026-05-05 20:30 46.91862 8.54811 36991 ft 426 kts 174°
2026-05-05 20:30 46.88962 8.55266 36993 ft 414 kts 174°
2026-05-05 20:31 46.86162 8.55707 36993 ft 408 kts 174°
2026-05-05 20:31 46.80484 8.56569 37003 ft 411 kts 174°
2026-05-05 20:32 46.74776 8.57398 37004 ft 413 kts 174°
2026-05-05 20:32 46.69059 8.58212 36999 ft 411 kts 174°
2026-05-05 20:33 46.63385 8.59018 36999 ft 409 kts 174°
2026-05-05 20:33 46.57697 8.59825 36756 ft 413 kts 174°
2026-05-05 20:33 46.54810 8.60234 36199 ft 417 kts 174°
2026-05-05 20:34 46.51915 8.60645 35580 ft 417 kts 174°
2026-05-05 20:34 46.49038 8.61053 34947 ft 411 kts 175°
2026-05-05 20:34 46.46200 8.61173 34321 ft 405 kts 184°
2026-05-05 20:34 46.43443 8.60569 33692 ft 398 kts 195°
2026-05-05 20:35 46.40910 8.59197 33074 ft 392 kts 207°
2026-05-05 20:35 46.38515 8.57352 32443 ft 386 kts 210°
2026-05-05 20:35 46.36216 8.55384 31825 ft 381 kts 212°
2026-05-05 20:35 46.33984 8.53370 31194 ft 377 kts 212°
2026-05-05 20:36 46.31778 8.51342 30568 ft 372 kts 213°
2026-05-05 20:36 46.29549 8.49479 29985 ft 367 kts 205°
2026-05-05 20:36 46.27178 8.48246 29526 ft 360 kts 193°
2026-05-05 20:36 46.24706 8.47798 29162 ft 358 kts 182°
2026-05-05 20:37 46.22207 8.47823 28783 ft 358 kts 177°
2026-05-05 20:37 46.20561 8.47974 28550 ft 359 kts 175°
2026-05-05 20:37 46.17231 8.48448 28052 ft 359 kts 174°
2026-05-05 20:37 46.14752 8.48861 27681 ft 358 kts 173°
2026-05-05 20:38 46.12291 8.49315 27308 ft 357 kts 169°
2026-05-05 20:38 46.09905 8.50291 27039 ft 353 kts 161°
2026-05-05 20:38 46.07618 8.51439 26996 ft 343 kts 160°
2026-05-05 20:38 46.06142 8.52207 26991 ft 337 kts 160°
2026-05-05 20:39 46.03967 8.53354 26997 ft 332 kts 160°
2026-05-05 20:39 46.01793 8.54510 27001 ft 331 kts 160°
2026-05-05 20:39 45.99639 8.55662 27002 ft 330 kts 160°
2026-05-05 20:39 45.97501 8.56807 27000 ft 328 kts 160°
2026-05-05 20:40 45.95367 8.57952 27000 ft 326 kts 160°
2026-05-05 20:40 45.93244 8.59090 27000 ft 325 kts 160°
2026-05-05 20:40 45.91107 8.60190 26999 ft 324 kts 165°
2026-05-05 20:40 45.88912 8.60595 26999 ft 322 kts 184°
2026-05-05 20:41 45.86698 8.60162 27001 ft 322 kts 191°
2026-05-05 20:41 45.84492 8.59525 27000 ft 322 kts 192°
2026-05-05 20:41 45.82588 8.58954 26819 ft 323 kts 192°
2026-05-05 20:41 45.80347 8.58288 26444 ft 324 kts 192°
2026-05-05 20:42 45.78148 8.57643 26074 ft 324 kts 192°
2026-05-05 20:42 45.75921 8.56999 25698 ft 325 kts 190°
2026-05-05 20:42 45.73672 8.56777 25323 ft 326 kts 177°
2026-05-05 20:42 45.71411 8.57099 24951 ft 326 kts 173°
2026-05-05 20:43 45.69155 8.57535 24566 ft 327 kts 172°
2026-05-05 20:43 45.66909 8.57982 24203 ft 327 kts 172°
2026-05-05 20:43 45.64669 8.58422 24014 ft 321 kts 172°
2026-05-05 20:43 45.62517 8.58839 23977 ft 311 kts 173°
2026-05-05 20:44 45.60386 8.59249 23675 ft 310 kts 173°
2026-05-05 20:44 45.58215 8.59651 23184 ft 315 kts 175°
2026-05-05 20:44 45.56025 8.59605 22685 ft 316 kts 191°
2026-05-05 20:44 45.53982 8.58556 22172 ft 312 kts 212°
2026-05-05 20:45 45.51584 8.53719 21172 ft 304 kts 261°
2026-05-05 20:45 45.51668 8.50754 20674 ft 300 kts 286°
2026-05-05 20:45 45.52618 8.48150 20175 ft 298 kts 311°
2026-05-05 20:46 45.54235 8.46353 19668 ft 296 kts 335°
2026-05-05 20:46 45.56211 8.45611 19173 ft 294 kts 354°
2026-05-05 20:46 45.58250 8.45450 18670 ft 292 kts 358°
2026-05-05 20:46 45.60282 8.45337 18171 ft 291 kts 357°
2026-05-05 20:47 45.62270 8.45181 17679 ft 289 kts 356°
2026-05-05 20:47 45.64280 8.45001 17177 ft 288 kts 358°
2026-05-05 20:47 45.66201 8.45294 16691 ft 286 kts 17°
2026-05-05 20:47 45.67945 8.46625 16175 ft 285 kts 41°
2026-05-05 20:48 45.69129 8.48886 15689 ft 283 kts 66°
2026-05-05 20:48 45.69546 8.51578 15184 ft 281 kts 90°
2026-05-05 20:48 45.69173 8.54303 14686 ft 279 kts 114°
2026-05-05 20:48 45.68075 8.56573 14185 ft 277 kts 138°
2026-05-05 20:49 45.66457 8.57997 13684 ft 274 kts 162°
2026-05-05 20:49 45.64595 8.58575 13187 ft 272 kts 172°
2026-05-05 20:49 45.62719 8.58910 12689 ft 271 kts 174°
2026-05-05 20:49 45.60845 8.59228 12190 ft 269 kts 173°
2026-05-05 20:50 45.59016 8.59555 11686 ft 266 kts 173°
2026-05-05 20:50 45.57184 8.59706 11219 ft 261 kts 186°
2026-05-05 20:50 45.55510 8.58940 10893 ft 249 kts 215°
2026-05-05 20:50 45.54424 8.57111 10846 ft 244 kts 249°
2026-05-05 20:51 45.54163 8.54743 10978 ft 244 kts 275°
2026-05-05 20:51 45.54706 8.52470 11001 ft 244 kts 304°
2026-05-05 20:51 45.55950 8.50889 10995 ft 245 kts 334°
2026-05-05 20:51 45.57597 8.50211 11005 ft 246 kts 350°
2026-05-05 20:52 45.59304 8.49852 11001 ft 248 kts 351°
2026-05-05 20:52 45.61013 8.49496 11000 ft 248 kts 351°
2026-05-05 20:52 45.62560 8.49161 11000 ft 249 kts 351°
2026-05-05 20:52 45.64134 8.48899 10933 ft 249 kts 359°
2026-05-05 20:53 45.65805 8.49383 10688 ft 247 kts 27°
2026-05-05 20:53 45.67046 8.51039 10445 ft 245 kts 60°
2026-05-05 20:53 45.67522 8.53359 10204 ft 245 kts 89°
2026-05-05 20:53 45.67184 8.55716 10083 ft 245 kts 117°
2026-05-05 20:54 45.66127 8.57553 10003 ft 244 kts 145°
2026-05-05 20:54 45.64575 8.58486 10000 ft 243 kts 168°
2026-05-05 20:54 45.62900 8.58880 10000 ft 245 kts 172°
2026-05-05 20:54 45.61217 8.59294 9826 ft 246 kts 170°
2026-05-05 20:55 45.59531 8.59741 9505 ft 247 kts 170°
2026-05-05 20:55 45.57845 8.60189 9220 ft 246 kts 170°
2026-05-05 20:55 45.56160 8.60631 8936 ft 246 kts 170°
2026-05-05 20:55 45.54475 8.61069 8661 ft 245 kts 170°
2026-05-05 20:56 45.52819 8.61497 8382 ft 246 kts 170°
2026-05-05 20:56 45.51094 8.61942 8076 ft 249 kts 170°
2026-05-05 20:56 45.49388 8.62381 7768 ft 249 kts 170°
2026-05-05 20:56 45.47712 8.62812 7486 ft 248 kts 170°
2026-05-05 20:57 45.45996 8.63252 7248 ft 246 kts 170°
2026-05-05 20:57 45.44340 8.63677 7176 ft 245 kts 170°
2026-05-05 20:57 45.42632 8.64115 7079 ft 245 kts 170°
2026-05-05 20:57 45.40954 8.64544 6966 ft 245 kts 170°
2026-05-05 20:58 45.39302 8.64967 6691 ft 245 kts 170°
2026-05-05 20:58 45.37641 8.65392 6540 ft 239 kts 170°
2026-05-05 20:58 45.36032 8.65804 6429 ft 231 kts 170°
2026-05-05 20:58 45.34476 8.66219 6304 ft 224 kts 169°
2026-05-05 20:59 45.32957 8.66634 6093 ft 221 kts 169°
2026-05-05 20:59 45.31451 8.67048 6004 ft 220 kts 169°
2026-05-05 20:59 45.29947 8.67462 5999 ft 220 kts 169°
2026-05-05 20:59 45.28440 8.67877 6000 ft 220 kts 169°
2026-05-05 21:00 45.26940 8.68289 5999 ft 220 kts 169°
2026-05-05 21:00 45.25431 8.68704 5999 ft 220 kts 169°
2026-05-05 21:00 45.23927 8.69127 5998 ft 220 kts 166°
2026-05-05 21:00 45.22597 8.70150 5996 ft 220 kts 134°
2026-05-05 21:01 45.21887 8.72031 6002 ft 219 kts 100°
2026-05-05 21:01 45.22011 8.74163 6004 ft 219 kts 71°
2026-05-05 21:01 45.22591 8.76132 6003 ft 221 kts 64°
2026-05-05 21:01 45.23356 8.78018 5987 ft 221 kts 47°
2026-05-05 21:02 45.24632 8.79234 5751 ft 220 kts 20°
2026-05-05 21:02 45.26105 8.79879 5456 ft 222 kts 14°
2026-05-05 21:02 45.27590 8.80414 5160 ft 224 kts 13°
2026-05-05 21:02 45.29111 8.80951 4865 ft 226 kts 13°
2026-05-05 21:03 45.30643 8.81489 4572 ft 227 kts 13°
2026-05-05 21:03 45.32212 8.81733 4267 ft 228 kts 357°
2026-05-05 21:03 45.33776 8.81438 4035 ft 225 kts 348°
2026-05-05 21:03 45.35320 8.80996 3985 ft 215 kts 348°
2026-05-05 21:04 45.36737 8.80594 3992 ft 213 kts 348°
2026-05-05 21:04 45.38077 8.80216 4005 ft 213 kts 348°
2026-05-05 21:04 45.39533 8.79809 4002 ft 213 kts 348°
2026-05-05 21:04 45.40994 8.79405 3998 ft 213 kts 348°
2026-05-05 21:05 45.42427 8.79014 3999 ft 213 kts 348°
2026-05-05 21:05 45.43888 8.78617 4022 ft 203 kts 348°
2026-05-05 21:05 45.45227 8.78253 3987 ft 189 kts 348°
2026-05-05 21:05 45.46500 8.77903 3772 ft 185 kts 348°
2026-05-05 21:06 45.47750 8.77559 3476 ft 181 kts 348°
2026-05-05 21:06 45.48962 8.77225 3215 ft 179 kts 348°
2026-05-05 21:06 45.50186 8.76889 2978 ft 178 kts 348°
2026-05-05 21:06 45.51405 8.76553 2740 ft 178 kts 348°
2026-05-05 21:07 45.52589 8.76227 2508 ft 166 kts 348°
2026-05-05 21:07 45.53680 8.75926 2303 ft 153 kts 348°
2026-05-05 21:07 45.54693 8.75647 2095 ft 146 kts 348°
2026-05-05 21:07 45.55689 8.75372 1903 ft 145 kts 348°
2026-05-05 21:08 45.56685 8.75098 1714 ft 146 kts 348°
2026-05-05 21:08 45.57681 8.74823 1517 ft 145 kts 348°
2026-05-05 21:08 45.58660 8.74553 1329 ft 145 kts 348°
2026-05-05 21:08 45.59661 8.74276 1139 ft 145 kts 348°
2026-05-05 21:09 45.60638 8.74006 944 ft 144 kts 348°
2026-05-05 21:09 45.61623 8.73741 766 ft 144 kts 349°
2026-05-05 21:09 45.62536 8.73482 741 ft 110 kts 349°
2026-05-05 21:09 45.63046 8.73325 738 ft 53 kts 336°
2026-05-05 21:10 45.63288 8.73012 739 ft 33 kts 303°
2026-05-05 21:10 45.63390 8.72790 738 ft 22 kts 297°
2026-05-05 21:10 45.63400 8.72581 738 ft 21 kts 260°
2026-05-05 21:10 45.63373 8.72378 738 ft 20 kts 258°
2026-05-05 21:11 45.63347 8.72193 741 ft 18 kts 259°
2026-05-05 21:11 45.63323 8.72021 740 ft 11 kts 255°
2026-05-05 21:11 45.63261 8.71974 739 ft 11 kts 174°
2026-05-05 21:11 45.63186 8.71994 738 ft 0 kts 169°
2026-05-05 21:12 45.63165 8.71999 739 ft 10 kts 169°
2026-05-05 21:13 45.63049 8.72031 739 ft 24 kts 169°
2026-05-05 21:13 45.62853 8.72085 739 ft 33 kts 169°
2026-05-05 21:13 45.62598 8.72156 740 ft 41 kts 169°
2026-05-05 21:13 45.62298 8.72240 740 ft 45 kts 170°
2026-05-05 21:14 45.62005 8.72320 738 ft 44 kts 169°
2026-05-05 21:14 45.61691 8.72406 741 ft 47 kts 169°
2026-05-05 21:14 45.61518 8.72454 738 ft 0 kts 169°
2026-05-05 21:16 45.61516 8.72455 738 ft 3 kts 169°
2026-05-05 21:16 45.61431 8.72458 739 ft 15 kts 206°
2026-05-05 21:16 45.61392 8.72330 741 ft 15 kts 260°
2026-05-05 21:16 45.61354 8.72203 738 ft 13 kts 216°
2026-05-05 21:17 45.61272 8.72205 740 ft 15 kts 165°
2026-05-05 21:17 45.61162 8.72229 741 ft 11 kts 199°
2026-05-05 21:17 45.61109 8.72151 737 ft 14 kts 213°
2026-05-05 21:17 45.61023 8.72143 739 ft 13 kts 185°
2026-05-05 21:18 45.60996 8.72097 738 ft 7 kts 258°
2026-05-05 21:18 45.60989 8.72054 740 ft 0 kts 257°